Wind_Speed
6 4 1 1 1 1 0 1 2 3 4 5 6 6 5 5 5 5 5 5 5 5 6 6 6 6 6 7 8 8 9 9 9 10 10 10 10 10 11 11 11 11 12 13 13 14 13 13 13
7 5 4 2 1 0 0 2 2 3 4 5 6 5 5 5 5 4 5 5 5 5 6 6 6 6 7 8 8 9 9 9 9 9 9 10 10 10 11 12 12 12 12 13 13 14 14 14 14
9 7 6 4 2 2 1 1 2 3 4 4 4 3 3 4 4 5 5 5 5 6 7 7 6 7 8 8 8 8 9 9 9 9 9 10 11 11 12 12 12 12 13 13 13 13 14 14 14
11 9 7 6 4 3 3 2 2 3 3 3 3 3 3 3 4 5 5 5 5 6 6 7 6 7 7 8 8 8 9 9 9 10 10 11 12 12 12 13 13 13 13 13 13 13 13 13 13
12 11 9 7 5 3 4 4 3 3 4 4 3 3 3 4 4 5 5 5 5 6 6 7 7 7 8 8 8 8 9 10 10 10 11 12 12 13 13 13 13 13 13 13 13 13 12 13 13
13 13 11 9 8 5 4 4 4 4 4 4 4 3 4 4 4 4 5 5 5 6 7 7 7 7 8 8 9 9 10 11 11 11 12 13 13 14 14 14 14 13 13 13 13 13 12 12 13
15 13 12 11 9 7 6 5 5 4 4 5 4 4 4 4 4 4 5 5 5 6 6 7 7 7 8 8 9 9 10 11 11 12 12 13 14 14 14 14 14 14 13 13 13 13 13 13 13
16 15 13 12 10 8 7 6 6 6 5 5 5 4 4 4 5 5 5 5 6 6 7 7 7 7 8 9 9 9 11 11 12 12 13 14 14 14 14 14 14 14 14 14 14 13 13 13 13
17 15 14 13 11 8 7 7 6 6 5 5 6 5 5 5 5 5 5 5 6 7 7 7 7 8 8 9 9 10 11 12 12 13 14 14 14 14 14 14 14 14 14 14 14 14 14 13 13
16 16 15 14 12 9 8 7 6 6 7 7 6 6 6 5 5 5 6 6 7 7 7 8 8 9 9 10 10 11 12 12 13 13 14 14 15 15 15 15 14 14 14 14 15 15 14 14 14
16 15 14 12 10 9 8 8 7 7 7 6 6 6 6 6 6 6 6 7 7 7 8 8 9 9 9 10 11 12 12 13 14 14 15 15 15 15 15 15 15 14 15 15 15 15 15 14 14
17 15 13 12 11 10 9 8 7 7 7 6 6 6 7 7 7 7 7 7 8 8 8 9 9 9 10 10 11 12 13 14 14 15 15 15 15 15 15 15 15 15 15 16 16 15 15 14 14
18 15 13 13 11 11 9 8 8 8 8 7 7 8 8 8 7 7 7 7 8 8 8 8 9 9 9 10 11 12 13 14 14 15 15 15 15 15 16 16 16 16 16 16 16 15 15 14 14
17 14 13 12 11 10 9 8 9 8 8 8 8 9 9 8 7 7 7 6 7 7 8 8 9 9 9 10 11 12 13 14 14 14 15 15 15 16 16 16 16 16 16 16 15 15 15 14 13
15 13 11 11 10 9 8 7 7 7 8 9 8 8 8 8 8 7 7 6 7 7 8 9 9 9 10 10 11 12 13 14 14 14 15 15 15 16 17 17 17 16 16 16 15 15 14 13 13
15 13 12 10 9 8 8 7 6 6 7 8 8 7 7 7 7 7 6 6 7 8 8 9 9 9 10 10 11 12 12 13 14 15 15 15 16 17 17 17 17 17 17 16 15 14 14 13 12
15 13 12 10 9 9 8 7 6 5 7 7 7 6 6 6 6 6 7 7 7 7 8 8 8 8 9 10 11 11 12 13 14 15 16 16 17 18 18 18 18 17 17 16 15 14 13 13 12
14 12 11 10 9 8 8 7 6 5 6 6 6 6 6 6 5 6 6 7 7 7 7 7 8 8 9 10 10 11 12 12 13 15 16 17 17 18 18 18 18 18 17 16 15 14 13 12 11
14 12 11 9 8 8 6 6 6 5 5 6 5 5 6 5 5 5 6 6 6 6 6 7 7 8 9 10 10 10 11 12 14 15 16 17 18 18 18 18 18 18 18 16 16 15 13 12 12
13 12 9 8 8 7 5 5 5 6 6 4 4 4 4 4 4 4 5 5 6 6 6 7 7 8 9 9 10 10 11 12 14 15 16 17 18 18 18 19 19 19 18 17 16 15 13 13 11
14 13 10 8 6 6 5 4 5 5 4 3 3 4 4 4 4 4 5 5 6 6 6 6 7 8 9 10 10 10 11 13 14 15 16 17 18 18 19 19 19 19 18 17 16 15 14 13 11
13 10 8 7 7 6 4 3 4 3 3 3 3 3 4 4 4 4 5 5 5 6 6 6 7 8 9 9 10 11 12 13 14 15 16 17 18 18 19 19 19 19 18 17 16 16 14 13 12
12 10 9 8 8 7 6 4 3 3 3 3 3 3 3 3 4 4 5 5 5 6 6 6 7 9 10 10 11 12 12 13 14 15 16 17 18 18 19 19 19 19 18 17 17 16 15 13 12
11 11 10 10 10 9 5 4 3 4 4 4 3 3 3 3 4 4 4 5 5 5 6 6 7 9 10 11 11 12 13 14 14 15 16 17 18 18 19 19 19 19 18 17 17 17 15 14 12
13 12 11 11 9 7 4 6 6 6 6 5 4 4 3 3 3 4 4 4 5 5 6 6 8 9 10 11 12 12 13 14 15 16 16 17 18 18 19 19 19 18 18 18 17 16 15 14 13
13 12 11 10 8 7 7 8 7 6 6 5 5 4 4 4 4 4 5 5 5 6 6 7 8 9 11 12 12 13 14 15 16 16 17 17 18 19 19 19 19 19 19 18 17 16 15 14 13
13 9 9 9 7 6 7 7 7 6 6 5 5 5 5 5 5 5 5 5 6 7 7 8 9 10 12 13 13 14 15 16 17 17 18 18 18 19 19 19 19 19 19 19 18 17 15 14 13
11 12 8 6 6 6 7 7 6 6 6 6 5 5 5 5 6 5 5 6 7 8 8 9 10 11 12 13 14 15 16 17 18 19 19 19 19 20 20 20 20 20 20 19 18 17 16 15 13
10 11 8 7 6 5 7 7 7 6 6 6 6 6 6 6 6 6 7 7 8 9 9 10 11 12 13 14 15 16 17 18 19 20 20 20 21 21 21 21 21 21 21 20 19 18 17 16 15
10 10 10 9 8 7 8 8 7 7 7 7 8 7 7 7 7 8 8 9 10 10 11 12 12 14 15 16 17 18 18 20 21 21 22 22 23 23 23 23 22 22 22 21 20 20 19 17 16
Wind_Direction
240 243 254 171 116 104 72 263 216 208 205 207 218 224 233 244 259 267 274 285 290 293 299 303 307 310 315 317 320 321 321 323 323 323 322 321 319 317 314 311 305 298 292 288 285 282 280 275 272
235 233 227 214 181 107 280 241 202 205 208 214 225 233 247 257 261 272 279 286 288 293 298 300 305 311 314 316 319 322 323 325 326 327 326 326 325 323 321 316 312 306 299 294 289 284 280 276 275
232 231 227 221 227 236 246 243 207 199 200 212 221 224 248 259 264 273 278 286 292 296 300 307 308 311 315 319 325 329 330 329 328 328 328 328 327 325 322 318 315 311 305 299 295 288 282 277 274
227 228 226 226 229 238 244 237 204 206 203 209 220 230 252 270 277 282 283 287 292 297 302 306 309 315 321 324 327 329 331 330 329 329 329 328 326 323 321 318 317 313 310 305 300 295 288 281 275
227 227 225 226 229 238 240 230 221 213 218 226 227 238 261 270 274 282 280 283 291 298 309 316 318 321 326 328 328 329 330 330 329 328 327 325 323 321 318 315 314 313 311 308 303 297 290 285 276
226 225 225 227 228 233 239 220 218 221 232 240 237 246 263 276 280 279 278 287 299 309 316 319 322 323 327 329 330 331 333 331 329 326 325 323 322 321 318 315 313 311 310 309 306 300 293 287 278
225 225 226 227 230 232 239 229 234 240 245 246 250 257 275 285 286 282 283 294 306 315 318 320 321 323 327 329 329 331 333 331 329 327 325 324 323 322 320 317 313 311 309 308 306 303 297 289 281
221 222 223 227 228 228 232 240 248 237 244 256 261 266 277 285 287 284 288 298 310 316 316 320 319 320 323 326 329 331 333 332 329 327 326 325 325 324 322 319 316 313 310 307 306 304 300 291 281
220 222 222 224 225 222 228 240 249 247 249 259 264 268 277 282 285 290 299 302 310 314 317 320 322 323 324 327 330 332 333 332 331 328 327 327 326 325 324 321 318 315 311 308 305 303 298 292 284
217 222 222 219 219 221 229 239 246 253 255 262 270 271 275 284 290 291 298 304 309 313 317 321 323 326 327 328 331 333 332 331 330 329 329 328 327 327 327 324 321 318 314 310 307 303 298 292 285
213 217 218 215 210 217 227 237 246 256 257 264 273 273 279 288 290 289 295 298 307 312 315 321 322 325 327 328 331 332 332 332 331 331 329 328 328 328 327 325 322 320 316 312 308 305 300 295 287
209 212 213 216 216 220 227 237 247 254 260 265 276 279 285 291 290 294 297 298 308 310 313 319 324 326 327 327 331 333 333 334 333 332 331 330 330 329 327 326 322 319 317 314 310 305 301 296 291
205 209 212 212 217 222 229 240 249 257 258 268 280 289 295 298 293 296 297 297 302 306 312 317 322 325 326 328 332 333 334 336 336 335 335 334 333 331 329 328 325 322 318 317 314 309 304 297 291
201 207 209 212 215 220 231 244 253 256 263 271 279 288 295 298 297 292 291 297 305 306 308 312 318 319 321 327 332 333 335 337 339 340 340 339 337 335 333 332 328 325 322 319 316 312 306 300 293
199 205 209 212 218 225 234 248 256 256 264 271 278 285 290 294 293 291 290 295 306 315 313 313 315 316 320 327 332 334 337 339 342 344 344 343 341 339 337 336 334 330 326 322 319 314 311 305 297
195 202 206 212 216 224 234 243 250 262 273 274 277 284 292 291 290 288 291 299 304 311 314 314 316 318 322 327 332 335 339 341 344 347 347 345 343 342 341 339 337 334 330 327 323 317 314 311 301
195 199 205 212 216 225 239 248 258 268 272 274 279 281 281 287 288 290 294 303 306 310 312 313 314 320 325 328 333 336 339 342 346 348 348 345 344 344 344 342 340 338 335 332 328 321 317 315 306
191 198 204 212 220 227 237 245 264 266 267 273 284 284 285 286 287 294 295 301 306 309 311 313 314 320 327 330 333 336 339 342 345 348 349 347 346 345 345 344 342 341 339 335 333 327 322 317 309
189 194 197 203 220 227 241 241 254 260 270 274 279 293 300 297 294 298 301 304 309 316 321 320 322 325 328 331 334 337 340 344 345 347 349 349 347 347 346 345 344 341 340 337 335 331 326 322 313
185 195 196 201 212 230 243 249 257 264 261 268 292 298 304 310 311 311 313 315 315 321 327 324 329 332 333 331 331 334 338 342 345 347 348 348 348 348 348 346 344 342 340 339 337 334 328 326 320
187 191 190 192 200 219 236 240 249 257 255 254 277 292 297 299 307 309 316 320 318 323 326 325 328 330 330 330 331 334 336 339 342 344 345 346 346 346 347 346 345 343 341 339 337 335 330 327 323
180 184 182 186 198 190 178 178 229 254 264 275 273 289 295 297 301 309 317 318 314 317 321 325 328 330 333 332 331 332 334 336 338 340 342 343 344 344 345 346 345 344 343 340 338 336 331 329 324
173 175 173 170 164 153 168 186 237 284 284 284 289 296 296 303 313 314 316 315 315 316 318 325 331 332 337 337 335 333 332 333 335 336 338 340 342 343 344 345 345 344 343 341 338 337 333 329 324
165 163 162 155 151 156 178 198 238 272 290 297 298 301 293 303 318 322 320 319 320 321 321 329 333 336 338 336 335 333 332 333 335 336 338 338 339 340 340 342 343 343 343 341 339 336 333 329 323
157 153 149 152 158 157 185 233 254 274 288 295 298 304 311 311 318 324 324 323 324 325 326 327 331 335 336 334 332 331 331 331 332 333 334 335 336 337 338 339 339 340 341 340 338 337 332 327 321
155 158 155 152 162 184 226 252 265 277 281 286 293 297 305 311 315 322 323 325 325 325 326 326 328 329 330 333 333 329 328 327 328 329 329 331 332 334 336 337 336 336 337 337 336 333 332 326 319
158 148 135 140 154 186 241 265 269 272 276 281 283 287 293 301 307 309 316 320 318 319 322 324 325 324 324 330 331 329 327 326 326 326 327 327 329 331 333 334 334 335 334 334 333 332 329 325 318
160 148 141 143 166 202 254 273 275 270 273 277 285 289 290 292 299 305 308 319 317 316 318 318 319 320 322 324 325 325 325 325 325 326 326 326 326 327 328 329 330 331 331 331 330 328 325 322 316
164 162 160 166 193 218 248 260 271 275 275 278 283 287 292 295 301 305 306 312 313 312 313 315 317 318 320 322 324 324 324 324 323 323 323 323 324 325 325 324 325 326 327 327 327 324 323 318 313
176 178 180 181 198 224 250 267 276 276 277 281 283 286 291 295 298 300 300 303 304 304 306 309 312 314 316 317 320 321 320 321 321 320 320 319 319 320 320 320 320 320 320 321 322 321 318 316 313
Height
5863 5864 5864 5865 5866 5866 5865 5866 5865 5867 5868 5869 5870 5871 5872 5873 5875 5877 5875 5875 5875 5875 5875 5875 5875 5874 5874 5874 5873 5873 5872 5871 5870 5869 5868 5867 5866 5866 5865 5864 5863 5863 5862 5862 5862 5862 5862 5862 5862
5862 5863 5864 5865 5865 5865 5866 5865 5865 5866 5867 5868 5869 5871 5872 5873 5873 5874 5874 5874 5875 5875 5875 5874 5874 5874 5873 5873 5873 5872 5871 5870 5869 5868 5867 5866 5865 5865 5864 5863 5862 5861 5860 5860 5860 5859 5859 5859 5859
5861 5862 5864 5865 5865 5865 5865 5865 5866 5866 5867 5868 5869 5871 5871 5872 5873 5873 5873 5874 5874 5874 5874 5874 5873 5873 5873 5872 5872 5871 5870 5869 5869 5868 5867 5866 5865 5864 5863 5862 5860 5859 5858 5858 5857 5857 5857 5857 5857
5860 5861 5863 5864 5864 5864 5865 5865 5865 5866 5867 5868 5869 5870 5870 5872 5872 5873 5873 5874 5874 5874 5873 5873 5873 5872 5872 5872 5871 5870 5869 5869 5868 5867 5866 5864 5863 5862 5861 5860 5859 5857 5856 5856 5855 5854 5854 5854 5854
5858 5860 5862 5862 5863 5864 5864 5865 5865 5866 5867 5868 5869 5870 5870 5871 5872 5872 5872 5873 5873 5873 5873 5873 5872 5872 5871 5871 5870 5870 5869 5868 5867 5866 5865 5863 5862 5861 5859 5858 5857 5855 5854 5854 5853 5852 5851 5851 5851
5856 5858 5860 5861 5861 5863 5863 5864 5865 5866 5867 5868 5869 5870 5870 5871 5871 5871 5872 5872 5873 5873 5872 5872 5872 5871 5871 5870 5869 5869 5868 5867 5866 5865 5863 5862 5861 5859 5858 5856 5855 5853 5852 5851 5850 5849 5849 5849 5849
5855 5857 5858 5859 5860 5862 5863 5864 5865 5866 5866 5867 5868 5870 5870 5870 5870 5871 5871 5872 5872 5872 5872 5871 5871 5870 5870 5869 5869 5868 5867 5866 5865 5863 5862 5860 5859 5857 5856 5854 5853 5851 5850 5849 5848 5847 5846 5846 5846
5851 5855 5855 5857 5858 5860 5862 5863 5864 5865 5866 5867 5868 5869 5869 5870 5870 5870 5871 5871 5871 5871 5871 5871 5870 5870 5869 5868 5868 5867 5866 5865 5863 5862 5860 5859 5857 5855 5854 5852 5850 5849 5848 5847 5846 5845 5844 5843 5843
5849 5853 5853 5855 5857 5859 5860 5862 5864 5865 5866 5866 5867 5868 5868 5869 5869 5870 5870 5871 5871 5870 5870 5870 5869 5869 5869 5868 5867 5866 5865 5863 5862 5860 5859 5857 5855 5854 5852 5850 5848 5847 5845 5844 5843 5842 5841 5840 5840
5847 5850 5851 5853 5855 5858 5860 5861 5863 5864 5865 5865 5866 5867 5868 5868 5868 5869 5869 5870 5870 5870 5869 5869 5868 5868 5867 5867 5866 5865 5864 5862 5861 5859 5857 5855 5854 5852 5850 5848 5846 5844 5843 5841 5840 5839 5838 5837 5837
5845 5847 5849 5851 5854 5857 5859 5861 5862 5863 5864 5865 5865 5866 5867 5867 5867 5868 5868 5869 5869 5869 5868 5868 5867 5866 5866 5865 5864 5863 5862 5861 5859 5857 5855 5854 5852 5850 5848 5846 5844 5842 5840 5839 5837 5836 5835 5834 5834
5843 5845 5847 5851 5853 5856 5858 5860 5861 5862 5863 5864 5865 5865 5866 5866 5866 5867 5867 5867 5867 5867 5867 5866 5866 5865 5865 5864 5863 5862 5861 5859 5857 5856 5854 5852 5850 5848 5846 5844 5842 5840 5838 5836 5834 5833 5832 5831 5831
5841 5845 5847 5850 5853 5855 5857 5859 5860 5861 5862 5863 5864 5864 5865 5865 5865 5865 5865 5865 5866 5866 5865 5865 5864 5864 5864 5863 5862 5861 5859 5858 5856 5854 5852 5850 5848 5846 5844 5842 5839 5837 5835 5833 5831 5830 5829 5828 5827
5840 5843 5846 5849 5852 5854 5856 5857 5859 5860 5861 5862 5862 5863 5863 5864 5864 5864 5864 5865 5864 5864 5864 5864 5863 5863 5862 5862 5861 5859 5858 5856 5855 5853 5851 5849 5846 5844 5842 5839 5837 5835 5832 5830 5828 5827 5825 5824 5824
5839 5843 5846 5848 5851 5853 5855 5857 5857 5858 5859 5860 5860 5861 5862 5862 5862 5863 5863 5863 5863 5862 5862 5862 5861 5861 5861 5860 5859 5858 5857 5855 5854 5851 5849 5847 5845 5843 5840 5837 5835 5832 5830 5828 5825 5824 5822 5821 5821
5839 5843 5845 5848 5850 5852 5855 5856 5856 5857 5858 5858 5859 5860 5860 5860 5861 5861 5862 5862 5861 5861 5861 5861 5860 5860 5860 5859 5858 5857 5856 5854 5853 5850 5848 5846 5844 5841 5838 5835 5833 5830 5828 5825 5823 5821 5820 5818 5818
5838 5842 5844 5847 5849 5851 5853 5854 5855 5856 5856 5857 5858 5858 5859 5859 5859 5860 5860 5860 5860 5860 5860 5859 5859 5859 5858 5858 5857 5856 5854 5853 5851 5849 5847 5845 5842 5839 5837 5834 5831 5828 5826 5823 5821 5819 5817 5816 5815
5838 5841 5843 5846 5848 5850 5852 5853 5854 5855 5856 5856 5857 5857 5857 5858 5858 5859 5859 5859 5859 5859 5858 5858 5857 5857 5857 5856 5855 5854 5853 5852 5850 5848 5846 5844 5841 5838 5835 5832 5829 5827 5824 5821 5819 5817 5815 5814 5813
5837 5839 5842 5846 5848 5850 5851 5852 5853 5854 5854 5855 5856 5857 5856 5857 5857 5858 5858 5857 5857 5857 5857 5856 5856 5856 5855 5855 5854 5853 5852 5851 5849 5847 5845 5842 5840 5837 5834 5831 5828 5826 5823 5820 5817 5815 5813 5812 5811
5837 5839 5842 5846 5847 5849 5850 5851 5852 5853 5854 5854 5855 5856 5856 5856 5856 5856 5856 5856 5856 5856 5856 5855 5854 5854 5854 5853 5853 5852 5851 5850 5848 5846 5844 5841 5839 5836 5833 5831 5827 5824 5821 5819 5816 5814 5812 5810 5809
5837 5840 5843 5846 5847 5849 5850 5851 5851 5852 5853 5854 5854 5855 5855 5855 5855 5855 5855 5855 5855 5855 5854 5854 5854 5853 5853 5852 5851 5850 5850 5848 5847 5845 5843 5840 5838 5835 5832 5829 5826 5823 5820 5817 5815 5812 5810 5808 5807
5837 5840 5843 5845 5847 5848 5850 5850 5851 5851 5853 5853 5853 5854 5854 5854 5854 5854 5854 5854 5853 5853 5853 5853 5852 5852 5851 5850 5850 5849 5848 5847 5845 5844 5842 5839 5837 5834 5831 5828 5825 5822 5819 5816 5813 5811 5809 5807 5806
5838 5841 5844 5846 5847 5849 5850 5850 5851 5851 5852 5853 5852 5852 5853 5853 5853 5853 5853 5853 5853 5852 5852 5852 5851 5851 5850 5849 5848 5847 5846 5845 5844 5842 5840 5838 5835 5833 5830 5827 5824 5821 5818 5815 5812 5810 5807 5806 5804
5839 5842 5844 5845 5847 5849 5850 5850 5851 5851 5851 5852 5851 5851 5851 5852 5851 5851 5851 5852 5851 5851 5851 5850 5850 5849 5849 5848 5847 5846 5845 5843 5842 5840 5838 5836 5834 5831 5829 5826 5823 5820 5816 5814 5811 5808 5806 5804 5803
5839 5842 5844 5845 5847 5849 5850 5850 5851 5851 5851 5851 5850 5850 5850 5850 5850 5850 5850 5850 5850 5849 5849 5849 5848 5848 5847 5846 5845 5844 5843 5841 5840 5838 5836 5834 5832 5830 5827 5824 5821 5818 5815 5812 5810 5807 5805 5803 5801
5839 5841 5844 5846 5847 5849 5850 5849 5851 5850 5850 5850 5850 5849 5849 5849 5849 5849 5849 5849 5849 5848 5848 5847 5847 5846 5845 5844 5843 5842 5841 5839 5838 5836 5834 5832 5830 5828 5825 5822 5820 5817 5814 5811 5808 5805 5803 5801 5800
5839 5840 5843 5845 5847 5849 5849 5849 5849 5849 5849 5849 5849 5848 5848 5848 5848 5847 5847 5847 5847 5847 5846 5846 5845 5844 5843 5842 5841 5840 5838 5837 5835 5833 5832 5830 5827 5825 5823 5820 5817 5815 5812 5809 5806 5804 5802 5800 5798
5840 5842 5844 5846 5847 5848 5848 5847 5848 5848 5848 5848 5847 5847 5846 5846 5846 5846 5846 5846 5845 5845 5844 5844 5843 5842 5841 5840 5839 5837 5836 5834 5832 5831 5829 5827 5824 5822 5820 5817 5815 5812 5810 5807 5804 5802 5799 5798 5796
5842 5844 5844 5846 5847 5848 5847 5848 5847 5847 5846 5846 5846 5845 5845 5845 5845 5844 5844 5844 5843 5843 5842 5842 5841 5840 5839 5837 5836 5835 5833 5831 5830 5828 5826 5824 5821 5819 5816 5814 5812 5809 5807 5804 5802 5800 5797 5795 5794
5841 5842 5843 5845 5846 5846 5846 5849 5845 5845 5845 5844 5843 5843 5843 5843 5842 5842 5842 5841 5841 5840 5840 5839 5838 5837 5836 5835 5833 5832 5830 5828 5826 5824 5822 5820 5818 5815 5813 5810 5808 5805 5803 5801 5799 5797 5795 5793 5791